| time (UTC) | temp F | wind direction | speed MPH | gust MPH | rain 1hr in | rain 24hr in | rain mn in | humidity % | barometer mb |
| 20260831234558 | 85 | 97 | 0.0 | 6.0 | 0.00 | 0.00 | 0.00 | 30 | 1028.7 |
| 20260831233054 | 87 | 0 | 0.0 | 3.0 | 0.00 | 0.00 | 0.00 | 28 | 1028.8 |
| 20260831231554 | 86 | 48 | 0.0 | 3.0 | 0.00 | 0.00 | 0.00 | 28 | 1028.8 |
| 20260831230105 | 85 | 171 | 1.0 | 8.0 | 0.00 | 0.00 | 0.00 | 29 | 1028.9 |
| 20260831224556 | 85 | 0 | 0.0 | 4.0 | 0.00 | 0.00 | 0.00 | 30 | 1029.0 |
| 20260831223101 | 85 | 0 | 1.0 | 6.0 | 0.00 | 0.00 | 0.00 | 31 | 1029.3 |
| 20260831221605 | 83 | 41 | 1.0 | 5.0 | 0.00 | 0.00 | 0.00 | 32 | 1029.3 |
| 20260831220100 | 83 | 0 | 0.0 | 2.0 | 0.00 | 0.00 | 0.00 | 32 | 1029.4 |
| 20260831214605 | 84 | 52 | 1.0 | 5.0 | 0.00 | 0.01 | 0.00 | 31 | 1029.3 |
| 20260831213103 | 84 | 157 | 0.0 | 4.0 | 0.00 | 0.01 | 0.00 | 31 | 1029.7 |
| 20260831211604 | 83 | 351 | 1.0 | 4.0 | 0.00 | 0.01 | 0.00 | 32 | 1029.9 |
| 20260831210130 | 82 | 94 | 0.0 | 3.0 | 0.00 | 0.01 | 0.00 | 33 | 1030.2 |
| 20260831204555 | 81 | 116 | 0.0 | 5.0 | 0.00 | 0.03 | 0.00 | 33 | 1030.2 |
| 20260831203106 | 81 | 0 | 0.0 | 3.0 | 0.00 | 0.03 | 0.00 | 33 | 1030.4 |
| 20260831201603 | 80 | 0 | 0.0 | 0.0 | 0.00 | 0.03 | 0.00 | 34 | 1030.6 |
| 20260831200123 | 80 | 0 | 0.0 | 1.0 | 0.00 | 0.03 | 0.00 | 34 | 1030.8 |
| 20260831194626 | 80 | 0 | 0.0 | 1.0 | 0.00 | 0.03 | 0.00 | 34 | 1031.0 |
| 20260831193104 | 80 | 0 | 0.0 | 6.0 | 0.00 | 0.03 | 0.00 | 35 | 1031.1 |
| 20260831191606 | 79 | 0 | 0.0 | 0.0 | 0.00 | 0.03 | 0.00 | 36 | 1031.3 |
| 20260831190112 | 78 | 0 | 0.0 | 0.0 | 0.00 | 0.03 | 0.00 | 38 | 1031.5 |
| 20260831184605 | 78 | 0 | 0.0 | 0.0 | 0.00 | 0.03 | 0.00 | 38 | 1031.7 |
| 20260831183104 | 78 | 0 | 0.0 | 0.0 | 0.00 | 0.03 | 0.00 | 36 | 1031.7 |
| 20260831181605 | 78 | 0 | 0.0 | 0.0 | 0.00 | 0.03 | 0.00 | 37 | 1031.9 |
| 20260831180111 | 77 | 0 | 0.0 | 0.0 | 0.00 | 0.03 | 0.00 | 39 | 1031.9 |
| 20260831174601 | 76 | 0 | 0.0 | 0.0 | 0.00 | 0.03 | 0.00 | 41 | 1032.1 |
| 20260831173130 | 76 | 0 | 0.0 | 1.0 | 0.00 | 0.03 | 0.00 | 42 | 1032.0 |
| 20260831171601 | 76 | 0 | 0.0 | 1.0 | 0.00 | 0.03 | 0.00 | 41 | 1032.1 |
| 20260831170056 | 76 | 0 | 0.0 | 0.0 | 0.00 | 0.03 | 0.00 | 42 | 1032.2 |
| 20260831164611 | 75 | 0 | 0.0 | 0.0 | 0.00 | 0.03 | 0.00 | 43 | 1032.1 |
| 20260831163109 | 75 | 0 | 0.0 | 0.0 | 0.00 | 0.03 | 0.00 | 45 | 1032.0 |
| 20260831161603 | 74 | 0 | 0.0 | 0.0 | 0.00 | 0.03 | 0.00 | 45 | 1032.0 |
| 20260831160100 | 74 | 0 | 0.0 | 0.0 | 0.00 | 0.03 | 0.00 | 45 | 1031.9 |
| 20260831154625 | 73 | 0 | 0.0 | 0.0 | 0.00 | 0.03 | 0.00 | 48 | 1031.8 |
| 20260831153104 | 73 | 0 | 0.0 | 0.0 | 0.00 | 0.03 | 0.00 | 48 | 1031.7 |
| 20260831151557 | 73 | 0 | 0.0 | 0.0 | 0.00 | 0.03 | 0.00 | 47 | 1031.5 |
| 20260831150109 | 72 | 0 | 0.0 | 0.0 | 0.00 | 0.03 | 0.00 | 43 | 1031.7 |
| 20260831144553 | 70 | 0 | 0.0 | 0.0 | 0.00 | 0.03 | 0.00 | 50 | 1031.7 |
| 20260831143109 | 68 | 0 | 0.0 | 0.0 | 0.00 | 0.03 | 0.00 | 55 | 1031.8 |
| 20260831141607 | 64 | 0 | 0.0 | 0.0 | 0.00 | 0.03 | 0.00 | 63 | 1031.7 |
| 20260831134556 | 63 | 0 | 0.0 | 0.0 | 0.00 | 0.03 | 0.00 | 68 | 1031.2 |
| 20260831133103 | 62 | 0 | 0.0 | 0.0 | 0.00 | 0.03 | 0.00 | 66 | 1031.2 |
| 20260831131601 | 61 | 0 | 0.0 | 0.0 | 0.00 | 0.03 | 0.00 | 65 | 1030.8 |
| 20260831130059 | 60 | 0 | 0.0 | 0.0 | 0.00 | 0.03 | 0.00 | 65 | 1030.4 |
| 20260831124609 | 60 | 0 | 0.0 | 0.0 | 0.00 | 0.03 | 0.00 | 65 | 1030.6 |
| 20260831123106 | 60 | 0 | 0.0 | 0.0 | 0.00 | 0.03 | 0.00 | 64 | 1030.2 |
| 20260831121558 | 60 | 0 | 0.0 | 0.0 | 0.00 | 0.03 | 0.00 | 64 | 1030.2 |
| 20260831120111 | 60 | 0 | 0.0 | 0.0 | 0.00 | 0.03 | 0.00 | 65 | 1030.1 |
| 20260831114603 | 60 | 0 | 0.0 | 0.0 | 0.00 | 0.03 | 0.00 | 66 | 1030.0 |
| 20260831113104 | 60 | 0 | 0.0 | 0.0 | 0.00 | 0.03 | 0.00 | 65 | 1030.0 |
| 20260831111612 | 60 | 0 | 0.0 | 0.0 | 0.00 | 0.03 | 0.00 | 64 | 1029.8 |
| 20260831110056 | 60 | 0 | 0.0 | 0.0 | 0.00 | 0.03 | 0.00 | 67 | 1029.8 |
| 20260831104611 | 60 | 0 | 0.0 | 0.0 | 0.00 | 0.03 | 0.00 | 69 | 1029.9 |
| 20260831103108 | 60 | 0 | 0.0 | 0.0 | 0.00 | 0.03 | 0.00 | 69 | 1029.8 |
| 20260831101600 | 61 | 0 | 0.0 | 0.0 | 0.00 | 0.03 | 0.00 | 68 | 1029.6 |
| 20260831100108 | 61 | 0 | 0.0 | 0.0 | 0.00 | 0.03 | 0.00 | 67 | 1029.7 |
| 20260831094618 | 62 | 0 | 0.0 | 0.0 | 0.00 | 0.03 | 0.00 | 67 | 1029.5 |
| 20260831093103 | 62 | 0 | 0.0 | 0.0 | 0.00 | 0.03 | 0.00 | 68 | 1029.3 |
| 20260831091600 | 62 | 0 | 0.0 | 0.0 | 0.00 | 0.03 | 0.00 | 68 | 1029.3 |
| 20260831090101 | 63 | 0 | 0.0 | 0.0 | 0.00 | 0.03 | 0.00 | 69 | 1029.2 |
| 20260831084553 | 63 | 0 | 0.0 | 1.0 | 0.00 | 0.03 | 0.00 | 69 | 1029.2 |
| 20260831083105 | 63 | 0 | 0.0 | 1.0 | 0.00 | 0.03 | 0.00 | 69 | 1029.3 |
| 20260831081603 | 64 | 0 | 0.0 | 0.0 | 0.00 | 0.03 | 0.00 | 67 | 1029.5 |
| 20260831080057 | 64 | 0 | 0.0 | 0.0 | 0.00 | 0.03 | 0.00 | 66 | 1029.5 |
| 20260831074554 | 64 | 0 | 0.0 | 0.0 | 0.00 | 0.03 | 0.00 | 63 | 1029.6 |
| 20260831073100 | 65 | 0 | 0.0 | 0.0 | 0.00 | 0.03 | 0.00 | 61 | 1029.8 |
| 20260831071552 | 65 | 0 | 0.0 | 0.0 | 0.00 | 0.03 | 0.00 | 60 | 1029.8 |
| 20260831070108 | 65 | 0 | 0.0 | 0.0 | 0.00 | 0.03 | 0.00 | 60 | 1029.8 |
| 20260831064602 | 66 | 0 | 0.0 | 0.0 | 0.00 | 0.03 | 0.00 | 58 | 1029.9 |
| 20260831063055 | 66 | 0 | 0.0 | 0.0 | 0.00 | 0.03 | 0.00 | 56 | 1030.1 |
| 20260831061552 | 66 | 0 | 0.0 | 0.0 | 0.00 | 0.03 | 0.00 | 53 | 1030.0 |
| 20260831060110 | 66 | 0 | 0.0 | 0.0 | 0.00 | 0.03 | 0.00 | 55 | 1030.2 |
| 20260831054604 | 67 | 0 | 0.0 | 3.0 | 0.00 | 0.03 | 0.03 | 55 | 1030.2 |
| 20260831053059 | 67 | 0 | 0.0 | 1.0 | 0.00 | 0.03 | 0.03 | 57 | 1030.5 |
| 20260831051602 | 67 | 0 | 0.0 | 1.0 | 0.00 | 0.03 | 0.03 | 58 | 1030.4 |
| 20260831050113 | 66 | 0 | 0.0 | 3.0 | 0.00 | 0.03 | 0.03 | 60 | 1031.0 |
| 20260831044618 | 65 | 0 | 0.0 | 4.0 | 0.00 | 0.03 | 0.03 | 62 | 1031.0 |
| 20260831043054 | 64 | 261 | 0.0 | 3.0 | 0.00 | 0.03 | 0.03 | 73 | 1030.8 |
| 20260831041613 | 64 | 0 | 0.0 | 0.0 | 0.00 | 0.03 | 0.03 | 75 | 1030.5 |
| 20260831040052 | 64 | 0 | 0.0 | 0.0 | 0.00 | 0.03 | 0.03 | 75 | 1030.3 |
| 20260831034554 | 64 | 0 | 0.0 | 2.0 | 0.00 | 0.03 | 0.03 | 74 | 1030.2 |
| 20260831033104 | 64 | 0 | 0.0 | 0.0 | 0.00 | 0.03 | 0.03 | 73 | 1030.1 |
| 20260831031601 | 65 | 0 | 0.0 | 0.0 | 0.00 | 0.03 | 0.03 | 72 | 1030.1 |
| 20260831030058 | 65 | 0 | 0.0 | 0.0 | 0.00 | 0.03 | 0.03 | 72 | 1029.9 |
| 20260831024630 | 66 | 0 | 0.0 | 0.0 | 0.00 | 0.03 | 0.03 | 70 | 1030.1 |
| 20260831023102 | 67 | 0 | 0.0 | 0.0 | 0.00 | 0.03 | 0.03 | 68 | 1029.8 |
| 20260831021603 | 67 | 0 | 0.0 | 0.0 | 0.00 | 0.03 | 0.03 | 66 | 1029.5 |
| 20260831020108 | 68 | 0 | 0.0 | 0.0 | 0.00 | 0.03 | 0.03 | 64 | 1029.4 |
| 20260831014610 | 69 | 0 | 0.0 | 0.0 | 0.00 | 0.03 | 0.03 | 64 | 1029.3 |
| 20260831013058 | 71 | 0 | 0.0 | 0.0 | 0.00 | 0.03 | 0.03 | 62 | 1029.3 |
| 20260831011607 | 72 | 0 | 0.0 | 0.0 | 0.00 | 0.03 | 0.03 | 60 | 1029.3 |
| 20260831010107 | 73 | 0 | 0.0 | 0.0 | 0.00 | 0.03 | 0.03 | 58 | 1029.3 |
| 20260831004605 | 74 | 0 | 0.0 | 0.0 | 0.00 | 0.03 | 0.03 | 56 | 1029.5 |
| 20260831003104 | 75 | 0 | 0.0 | 3.0 | 0.00 | 0.03 | 0.03 | 54 | 1029.4 |
| 20260831001558 | 75 | 84 | 0.0 | 6.0 | 0.00 | 0.03 | 0.03 | 52 | 1029.3 |
| 20260831000056 | 75 | 242 | 1.0 | 8.0 | 0.00 | 0.03 | 0.03 | 51 | 1029.3 |